Regional Weather Roundup
Issued by NWS Albany, NY

Home | Current Version | Previous Version | Graphics & Text | Print | Product List | Glossary Off
Versions: 1 2 3 4 5 6 7 8 9 10 11 12 13 14 15 16 17 18 19 20 21 22 23 24 25 26 27 28 29 30 31 32 33 34 35 36 37 38 39 40 41 42 43 44 45 46 47 48 49 50

000
ASUS41 KALY 301810
RWRALY

NEW YORK STATE HOURLY WEATHER ROUNDUP
NATIONAL WEATHER SERVICE ALBANY NY
200 PM EDT WED JUL 30 2014

NOTE: "FAIR" INDICATES FEW OR NO CLOUDS BELOW 12,000 FEET WITH NO
SIGNIFICANT WEATHER AND/OR NO OBSTRUCTIONS TO VISIBILITY.

NYZ032-033-038>043-046>054-057>066-NYZ062>081-301900-
EAST


CITY           SKY/WX    TMP DP  RH WIND       PRES   REMARKS
ALBANY         FAIR      74  52  46 CALM      30.00F
GLENS FALLS    CLOUDY    72  51  47 SW3       29.99F
POUGHKEEPSIE   PTSUNNY   76  50  40 W8        30.00S
NEWBURGH       PTSUNNY   73  54  49 CALM      30.03S
MONTGOMERY     CLOUDY    77  52  41 W10G17    30.01S
WHITE PLAINS   FAIR      76  48  37 W5        30.01F
ISLIP          FAIR      79  56  45 S10       29.99F
NEW YORK CITY  FAIR      80  43  26 W6        30.00F
CENTRAL PARK   FAIR      79  45  29 NW5       30.03F
$$

NYZ005>009-017-018-044>046-055-056-301900-
CENTRAL


CITY           SKY/WX    TMP DP  RH WIND       PRES   REMARKS
FULTON         PTSUNNY   72  56  57 SW9       29.96F
SYRACUSE       PTSUNNY   76  54  46 SW9       29.96F
ROME           FAIR      71  53  52 S5        29.99F
ELMIRA         NOT AVBL
BINGHAMTON     PTSUNNY   68  54  60 SW9       30.02F
MONTICELLO     PTSUNNY   70  54  56 W3        30.05F
$$

NYZ026>034-041>043-301900-
NORTH


CITY           SKY/WX    TMP DP  RH WIND       PRES   REMARKS
WATERTOWN      FAIR      73  54  51 S10       29.96F
FORT DRUM      NOT AVBL
MASSENA        FAIR      71  56  58 S14       29.96F
SARANAC LAKE   CLOUDY    66  47  50 SW10      29.98F
PLATTSBURGH    CLOUDY    70  56  61 SE12      29.96F
$$

NYZ001>004-010>016-019>021-301900-
WEST


CITY           SKY/WX    TMP DP  RH WIND       PRES   REMARKS
NIAGARA FALLS  TSTM      61  55  82 VRB3      29.96S FOG
BUFFALO        PTSUNNY   70  58  65 W13       29.96S THUNDER
DUNKIRK        FAIR      70  58  65 W13G28    29.97F
JAMESTOWN      PTSUNNY   66  55  68 SW9       30.00F
WELLSVILLE     FAIR      68  55  63 SW10      30.03F
ROCHESTER      CLOUDY    74  56  53 W5        29.96S
PENN YAN       FAIR      70  57  63 S10       29.98F
$$

             KEY
       WCI = WIND CHILL INDEX
       VSB = VISIBILITY
       HX  = HEAT INDEX
$$



USA.gov is the U.S. government's official web portal to all federal, state and local government web resources and services.